Flag for Norway Weather past 2 weeks in Ålesund, Norway

Now
54 °F

Passing clouds.


Feels Like: 49 °F
Forecast: 56 / 64 °F
Wind: 15 mph from Northeast

Location: Alesund / Vigra

Current Time: Sep 1, 2015 at 6:41:40 AM

Latest Report: Sep 1, 2015 at 5:50 AM


Visibility: N/A

Pressure: 30.01 "Hg

Humidity: 94%

Dew point: 52 °F

Location of ÅlesundLocation

Historic Weather in Ålesund — Graph

°F

Ålesund temperature yesterday

Maximum temperature yesterday: 63 °F (at 3:50 PM)
Minimum temperature yesterday: 54 °F (at 12:20 AM)
Average temperature yesterday: 57 °F

Past Weeks' High & Low Weather Summary

 TemperatureHumidityPressure
High77 °F (Aug 20, 12:50 PM)100% (Aug 17, 5:20 AM)30.21 "Hg (Aug 17, 5:20 AM)
Low52 °F (Aug 19, 2:50 AM)26% (Aug 20, 12:50 PM)29.45 "Hg (Aug 26, 1:20 AM)
Average62 °F75%29.94 "Hg
* Reported Aug 17 5:20 AM — Sep 1 5:20 AM, Ålesund, Weather by CustomWeather, © 2015

Note: Actual official high and low records may vary slightly from our data, if they occured in-between our weather recording intervals... More about our weather records

Advertising

Ålesund weather history for previous 24 hours

 ConditionsComfort  
Time TempWeatherWind HumidityBarometerVisibility
5:20 AM
Tue, Sep 1
55 °FPassing clouds.13 mph88%30.01 "HgN/A
4:50 AM54 °FPassing clouds.12 mph94%30.01 "HgN/A
4:20 AM54 °FPassing clouds.14 mph94%30.04 "HgN/A
3:50 AM54 °FPassing clouds.13 mph88%30.04 "HgN/A
3:20 AM54 °FCool.14 mph94%30.04 "HgN/A
2:50 AM55 °FCool.15 mph88%30.04 "HgN/A
2:20 AM54 °FPassing clouds.16 mph94%30.04 "HgN/A
1:50 AM54 °FPassing clouds.13 mph94%30.04 "HgN/A
12:50 AM54 °FPassing clouds.9 mph94%30.04 "HgN/A
11:50 PM
Mon, Aug 31
55 °FPassing clouds.13 mph88%30.07 "HgN/A
11:20 PM55 °FPassing clouds.12 mph88%30.07 "HgN/A
10:50 PM55 °FPassing clouds.12 mph88%30.07 "HgN/A
10:20 PM55 °FPassing clouds.12 mph88%30.07 "HgN/A
9:50 PM55 °FPassing clouds.10 mph88%30.07 "HgN/A
9:20 PM55 °FPassing clouds.12 mph88%30.07 "HgN/A
8:50 PM57 °FPartly sunny.10 mph82%30.07 "HgN/A
8:20 PM59 °FSunny.9 mph77%30.07 "Hg10 mi
7:50 PM59 °FPartly sunny.10 mph77%30.07 "HgN/A
7:20 PM59 °FPartly sunny.10 mph77%30.07 "HgN/A
6:50 PM61 °FPartly sunny.10 mph72%30.04 "HgN/A
6:20 PM61 °FBroken clouds.9 mph72%30.07 "HgN/A
5:50 PM61 °FBroken clouds.7 mph72%30.07 "HgN/A
5:20 PM61 °FBroken clouds.5 mph72%30.07 "HgN/A
4:50 PM61 °FScattered clouds.6 mph72%30.07 "HgN/A
4:20 PM61 °FBroken clouds.6 mph72%30.07 "HgN/A
3:50 PM63 °FScattered clouds.5 mph68%30.07 "HgN/A
3:20 PM61 °FScattered clouds.7 mph72%30.07 "HgN/A
2:50 PM61 °FScattered clouds.6 mph72%30.07 "HgN/A
1:50 PM61 °FBroken clouds.5 mph72%30.07 "HgN/A
1:20 PM61 °FBroken clouds.3 mph72%30.07 "HgN/A
12:50 PM61 °FBroken clouds.5 mph68%30.04 "HgN/A
11:50 AM59 °FPartly sunny.5 mph77%30.04 "HgN/A
11:20 AM59 °FScattered clouds.5 mph77%30.04 "HgN/A
10:50 AM59 °FPartly sunny.3 mph77%30.04 "HgN/A
9:50 AM59 °FPartly sunny.9 mph77%30.04 "HgN/A
9:20 AM59 °FPartly sunny.8 mph82%30.04 "HgN/A
8:50 AM55 °FPartly sunny.8 mph88%30.04 "HgN/A
8:20 AM55 °FPartly sunny.8 mph88%30.04 "HgN/A
7:50 AM54 °FBroken clouds.8 mph94%30.04 "HgN/A
7:20 AM54 °FBroken clouds.7 mph94%30.04 "HgN/A
6:50 AM54 °FPartly cloudy.7 mph94%30.01 "HgN/A
6:20 AM54 °FLight rain. Partly cloudy.5 mph94%30.01 "HgN/A
Weather by CustomWeather, © 2015

See weather overviewHow to use our weather pages